UA1ZBE-13 Weather Reports


Display with metric or nautical units.
time (UTC)temp
F
wind
direction
speed
MPH
gust
MPH
rain 1hr
in
rain 24hr
in
rain mn
in
humidity
%
barometer
mb
20260502130433 57 0.0 0.0 0.00 0.00 0.00 974.0
20260502123433 57 0.0 0.0 0.00 0.00 0.00 974.1
20260502122432 55 0.0 0.0 0.00 0.00 0.00 974.2
20260502121432 56 0.0 0.0 0.00 0.00 0.00 974.6
20260502120432 57 0.0 0.0 0.00 0.00 0.00 974.9
20260502115432 59 0.0 0.0 0.00 0.00 0.00 975.1
20260502114432 58 0.0 0.0 0.00 0.00 0.00 974.9
20260502113431 60 0.0 0.0 0.00 0.00 0.00 974.9
20260502112431 59 0.0 0.0 0.00 0.00 0.00 975.0
20260502111431 58 0.0 0.0 0.00 0.00 0.00 975.0
20260502110431 56 0.0 0.0 0.00 0.00 0.00 975.2
20260502105430 57 0.0 0.0 0.00 0.00 0.00 975.4
20260502104430 58 0.0 0.0 0.00 0.00 0.00 975.5
20260502103430 57 0.0 0.0 0.00 0.00 0.00 975.7
20260502102430 56 0.0 0.0 0.00 0.00 0.00 975.8
20260502101430 56 0.0 0.0 0.00 0.00 0.00 976.1
20260502100429 56 0.0 0.0 0.00 0.00 0.00 976.1
20260502091428 54 0.0 0.0 0.00 0.00 0.00 976.5
20260502090428 51 0.0 0.0 0.00 0.00 0.00 976.7
20260502071425 48 0.0 0.0 0.00 0.00 0.00 977.9
20260502070425 47 0.0 0.0 0.00 0.00 0.00 978.0
20260502065425 47 0.0 0.0 0.00 0.00 0.00 978.2
20260502064425 47 0.0 0.0 0.00 0.00 0.00 978.4
20260502063425 47 0.0 0.0 0.00 0.00 0.00 978.4
20260502062424 47 0.0 0.0 0.00 0.00 0.00 978.5
20260502061424 47 0.0 0.0 0.00 0.00 0.00 978.6
20260502060424 46 0.0 0.0 0.00 0.00 0.00 978.6
20260502055424 46 0.0 0.0 0.00 0.00 0.00 978.8
20260502054423 45 0.0 0.0 0.00 0.00 0.00 979.0
20260502053423 44 0.0 0.0 0.00 0.00 0.00 979.2
20260502052423 43 0.0 0.0 0.00 0.00 0.00 979.2
20260502051423 43 0.0 0.0 0.00 0.00 0.00 979.4
20260502050422 42 0.0 0.0 0.00 0.00 0.00 979.5
20260502045422 42 0.0 0.0 0.00 0.00 0.00 979.6
20260502044422 41 0.0 0.0 0.00 0.00 0.00 979.6
20260502043422 40 0.0 0.0 0.00 0.00 0.00 979.8
20260502042422 39 0.0 0.0 0.00 0.00 0.00 979.9
20260502041421 39 0.0 0.0 0.00 0.00 0.00 979.7
20260502040421 38 0.0 0.0 0.00 0.00 0.00 979.7
20260502035421 38 0.0 0.0 0.00 0.00 0.00 979.8
20260502034421 38 0.0 0.0 0.00 0.00 0.00 979.9
20260502033420 38 0.0 0.0 0.00 0.00 0.00 980.1
20260502032420 37 0.0 0.0 0.00 0.00 0.00 980.1
20260502031420 36 0.0 0.0 0.00 0.00 0.00 980.3
20260502030420 36 0.0 0.0 0.00 0.00 0.00 980.4
20260502025419 36 0.0 0.0 0.00 0.00 0.00 980.7
20260502024419 35 0.0 0.0 0.00 0.00 0.00 980.7
20260502023419 35 0.0 0.0 0.00 0.00 0.00 980.8
20260502022419 35 0.0 0.0 0.00 0.00 0.00 980.9
20260502021418 35 0.0 0.0 0.00 0.00 0.00 981.1
20260502020418 35 0.0 0.0 0.00 0.00 0.00 981.1
20260502015418 35 0.0 0.0 0.00 0.00 0.00 981.2
20260502014418 35 0.0 0.0 0.00 0.00 0.00 981.1
20260502013417 35 0.0 0.0 0.00 0.00 0.00 981.3
20260502012417 36 0.0 0.0 0.00 0.00 0.00 981.2
20260502011417 36 0.0 0.0 0.00 0.00 0.00 981.3
20260502010417 36 0.0 0.0 0.00 0.00 0.00 981.4
20260502005417 36 0.0 0.0 0.00 0.00 0.00 981.4
20260502004416 36 0.0 0.0 0.00 0.00 0.00 981.5
20260502003416 36 0.0 0.0 0.00 0.00 0.00 981.5
20260502002416 36 0.0 0.0 0.00 0.00 0.00 981.6
20260502001416 37 0.0 0.0 0.00 0.00 0.00 981.6
20260502000416 37 0.0 0.0 0.00 0.00 0.00 981.6
20260501235415 37 0.0 0.0 0.00 0.00 0.00 981.5
20260501234415 37 0.0 0.0 0.00 0.00 0.00 981.5
20260501233415 37 0.0 0.0 0.00 0.00 0.00 981.6
20260501232415 37 0.0 0.0 0.00 0.00 0.00 981.7
20260501231414 38 0.0 0.0 0.00 0.00 0.00 981.7
20260501230414 38 0.0 0.0 0.00 0.00 0.00 981.8
20260501225414 38 0.0 0.0 0.00 0.00 0.00 981.8
20260501224414 38 0.0 0.0 0.00 0.00 0.00 981.8
20260501223413 39 0.0 0.0 0.00 0.00 0.00 982.0
20260501222413 39 0.0 0.0 0.00 0.00 0.00 982.0
20260501221413 39 0.0 0.0 0.00 0.00 0.00 982.1
20260501220413 40 0.0 0.0 0.00 0.00 0.00 982.1
20260501215412 41 0.0 0.0 0.00 0.00 0.00 982.1
20260501214412 42 0.0 0.0 0.00 0.00 0.00 982.4
20260501213412 43 0.0 0.0 0.00 0.00 0.00 982.3
20260501212412 44 0.0 0.0 0.00 0.00 0.00 982.4
20260501211412 44 0.0 0.0 0.00 0.00 0.00 982.3
20260501210411 44 0.0 0.0 0.00 0.00 0.00 982.6
20260501205411 45 0.0 0.0 0.00 0.00 0.00 982.8
20260501204411 45 0.0 0.0 0.00 0.00 0.00 982.7
20260501203411 45 0.0 0.0 0.00 0.00 0.00 982.8
20260501202410 46 0.0 0.0 0.00 0.00 0.00 982.8
20260501201410 46 0.0 0.0 0.00 0.00 0.00 982.9
20260501200410 46 0.0 0.0 0.00 0.00 0.00 982.9
20260501195410 46 0.0 0.0 0.00 0.00 0.00 982.9
20260501194410 46 0.0 0.0 0.00 0.00 0.00 983.0
20260501193409 46 0.0 0.0 0.00 0.00 0.00 983.0
20260501192409 46 0.0 0.0 0.00 0.00 0.00 983.1
20260501191409 46 0.0 0.0 0.00 0.00 0.00 983.0
20260501190409 47 0.0 0.0 0.00 0.00 0.00 983.0
20260501185408 47 0.0 0.0 0.00 0.00 0.00 983.0
20260501184408 48 0.0 0.0 0.00 0.00 0.00 983.0
20260501183408 48 0.0 0.0 0.00 0.00 0.00 983.0
20260501182408 49 0.0 0.0 0.00 0.00 0.00 983.1
20260501181407 49 0.0 0.0 0.00 0.00 0.00 983.1
20260501180407 50 0.0 0.0 0.00 0.00 0.00 983.2
20260501175407 51 0.0 0.0 0.00 0.00 0.00 983.2
20260501174407 52 0.0 0.0 0.00 0.00 0.00 983.2
20260501173406 54 0.0 0.0 0.00 0.00 0.00 983.4
20260501172406 56 0.0 0.0 0.00 0.00 0.00 983.3
20260501171406 54 0.0 0.0 0.00 0.00 0.00 983.0
20260501170406 53 0.0 0.0 0.00 0.00 0.00 983.0
20260501165405 54 0.0 0.0 0.00 0.00 0.00 983.2
20260501164405 58 0.0 0.0 0.00 0.00 0.00 983.4
20260501163405 57 0.0 0.0 0.00 0.00 0.00 983.4
20260501162405 56 0.0 0.0 0.00 0.00 0.00 983.5
20260501161405 56 0.0 0.0 0.00 0.00 0.00 983.4
20260501160404 62 0.0 0.0 0.00 0.00 0.00 983.5
20260501155404 70 0.0 0.0 0.00 0.00 0.00 983.6
20260501154404 69 0.0 0.0 0.00 0.00 0.00 983.5
20260501153404 63 0.0 0.0 0.00 0.00 0.00 983.3
20260501152403 57 0.0 0.0 0.00 0.00 0.00 983.4
20260501151403 67 0.0 0.0 0.00 0.00 0.00 983.6
20260501150403 70 0.0 0.0 0.00 0.00 0.00 983.5
20260501145403 76 0.0 0.0 0.00 0.00 0.00 983.8
20260501144402 71 0.0 0.0 0.00 0.00 0.00 983.8